| time (UTC) | temp F | wind direction | speed knots | gust knots | rain 1hr in | rain 24hr in | rain mn in | humidity % | barometer mb |
| 20260507213102 | 62 | 62 | 3.5 | 13.0 | 0.00 | 0.26 | 0.26 | 73 | 1012.6 |
| 20260507212602 | 63 | 25 | 5.2 | 13.0 | 0.00 | 0.26 | 0.26 | 74 | 1012.5 |
| 20260507212102 | 63 | 73 | 5.2 | 16.5 | 0.00 | 0.26 | 0.26 | 75 | 1012.5 |
| 20260507211603 | 63 | 16 | 7.8 | 16.5 | 0.00 | 0.26 | 0.26 | 75 | 1012.8 |
| 20260507211103 | 63 | 24 | 5.2 | 12.2 | 0.00 | 0.26 | 0.26 | 75 | 1012.8 |
| 20260507210602 | 63 | 45 | 6.1 | 12.2 | 0.00 | 0.26 | 0.26 | 75 | 1012.9 |
| 20260507205602 | 63 | 58 | 4.3 | 13.9 | 0.00 | 0.26 | 0.26 | 75 | 1012.9 |
| 20260507205103 | 63 | 56 | 6.1 | 13.9 | 0.00 | 0.26 | 0.26 | 75 | 1012.8 |
| 20260507204602 | 63 | 78 | 4.3 | 14.8 | 0.00 | 0.26 | 0.26 | 76 | 1012.9 |
| 20260507204501 | 63 | 54 | 4.3 | 13.9 | 0.00 | 0.26 | 0.26 | 77 | 1013.0 |
| 20260507204146 | 63 | 61 | 7.0 | 14.8 | 0.00 | 0.26 | 0.26 | 76 | 1012.8 |
| 20260507203102 | 63 | 59 | 4.3 | 13.0 | 0.00 | 0.26 | 0.26 | 77 | 1013.0 |
| 20260507202603 | 63 | 49 | 4.3 | 11.3 | 0.00 | 0.26 | 0.26 | 76 | 1013.0 |
| 20260507202101 | 64 | 47 | 6.1 | 12.2 | 0.00 | 0.26 | 0.26 | 76 | 1012.9 |
| 20260507201602 | 64 | 73 | 6.1 | 13.9 | 0.00 | 0.26 | 0.26 | 76 | 1012.9 |
| 20260507201106 | 64 | 92 | 3.5 | 13.9 | 0.00 | 0.26 | 0.26 | 76 | 1012.8 |
| 20260507200604 | 64 | 41 | 3.5 | 10.4 | 0.00 | 0.26 | 0.26 | 76 | 1012.8 |
| 20260507195603 | 64 | 32 | 2.6 | 9.6 | 0.00 | 0.26 | 0.26 | 76 | 1012.9 |
| 20260507195102 | 64 | 97 | 2.6 | 9.6 | 0.00 | 0.26 | 0.26 | 76 | 1012.9 |
| 20260507194602 | 64 | 39 | 5.2 | 12.2 | 0.00 | 0.26 | 0.26 | 76 | 1012.8 |
| 20260507194102 | 64 | 14 | 5.2 | 12.2 | 0.00 | 0.26 | 0.26 | 76 | 1013.0 |
| 20260507193602 | 64 | 4 | 4.3 | 12.2 | 0.00 | 0.26 | 0.26 | 77 | 1013.0 |
| 20260507193102 | 65 | 80 | 3.5 | 8.7 | 0.00 | 0.26 | 0.26 | 76 | 1013.0 |
| 20260507192603 | 65 | 75 | 2.6 | 9.6 | 0.00 | 0.26 | 0.26 | 76 | 1013.1 |
| 20260507192059 | 65 | 48 | 4.3 | 10.4 | 0.00 | 0.26 | 0.26 | 76 | 1013.1 |
| 20260507191603 | 65 | 11 | 3.5 | 11.3 | 0.00 | 0.26 | 0.26 | 76 | 1013.1 |
| 20260507191058 | 65 | 20 | 5.2 | 11.3 | 0.00 | 0.26 | 0.26 | 76 | 1013.0 |
| 20260507190848 | 65 | 76 | 4.3 | 11.3 | 0.00 | 0.26 | 0.26 | 75 | 1013.0 |
| 20260507190355 | 65 | 27 | 5.2 | 11.3 | 0.00 | 0.26 | 0.26 | 76 | 1013.0 |
| 20260507185555 | 65 | 347 | 5.2 | 13.9 | 0.00 | 0.26 | 0.26 | 75 | 1012.9 |
| 20260507185055 | 65 | 52 | 6.1 | 13.9 | 0.00 | 0.26 | 0.26 | 75 | 1012.9 |
| 20260507184555 | 66 | 65 | 4.3 | 13.9 | 0.00 | 0.26 | 0.26 | 75 | 1012.6 |
| 20260507184056 | 66 | 48 | 6.1 | 13.9 | 0.00 | 0.26 | 0.26 | 75 | 1012.6 |
| 20260507183554 | 66 | 16 | 5.2 | 10.4 | 0.00 | 0.26 | 0.26 | 75 | 1012.5 |
| 20260507183055 | 66 | 75 | 5.2 | 11.3 | 0.00 | 0.26 | 0.26 | 75 | 1012.3 |
| 20260507182553 | 66 | 41 | 4.3 | 11.3 | 0.00 | 0.26 | 0.26 | 75 | 1012.3 |
| 20260507182051 | 66 | 8 | 4.3 | 10.4 | 0.00 | 0.26 | 0.26 | 75 | 1012.3 |
| 20260507181553 | 67 | 54 | 4.3 | 10.4 | 0.00 | 0.26 | 0.26 | 75 | 1012.3 |
| 20260507181052 | 67 | 58 | 1.7 | 10.4 | 0.00 | 0.26 | 0.26 | 74 | 1012.4 |
| 20260507180551 | 67 | 59 | 3.5 | 11.3 | 0.00 | 0.26 | 0.26 | 74 | 1012.4 |
| 20260507180051 | 67 | 347 | 3.5 | 11.3 | 0.00 | 0.26 | 0.26 | 74 | 1012.3 |
| 20260507175550 | 67 | 61 | 5.2 | 9.6 | 0.00 | 0.26 | 0.26 | 73 | 1012.4 |
| 20260507175049 | 68 | 30 | 1.7 | 9.6 | 0.00 | 0.26 | 0.26 | 73 | 1012.4 |
| 20260507174841 | 68 | 34 | 1.7 | 8.7 | 0.00 | 0.26 | 0.26 | 72 | 1012.4 |
| 20260507174046 | 68 | 23 | 5.2 | 8.7 | 0.00 | 0.26 | 0.26 | 71 | 1012.3 |
| 20260507173547 | 69 | 0 | 3.5 | 9.6 | 0.00 | 0.26 | 0.26 | 70 | 1012.3 |
| 20260507173046 | 69 | 48 | 5.2 | 9.6 | 0.00 | 0.26 | 0.26 | 69 | 1012.1 |
| 20260507172545 | 69 | 42 | 2.6 | 9.6 | 0.00 | 0.26 | 0.26 | 69 | 1012.2 |
| 20260507172154 | 70 | 27 | 6.1 | 11.3 | 0.00 | 0.26 | 0.26 | 68 | 1012.2 |
| 20260507172132 | 69 | 23 | 4.3 | 11.3 | 0.00 | 0.26 | 0.26 | 68 | 1012.3 |
| 20260507171044 | 70 | 38 | 4.3 | 10.4 | 0.00 | 0.26 | 0.26 | 67 | 1012.2 |
| 20260507170546 | 70 | 0 | 4.3 | 11.3 | 0.00 | 0.26 | 0.26 | 65 | 1012.1 |
| 20260507170043 | 71 | 23 | 5.2 | 11.3 | 0.00 | 0.26 | 0.26 | 64 | 1012.0 |
| 20260507165542 | 71 | 0 | 5.2 | 9.6 | 0.00 | 0.26 | 0.26 | 62 | 1012.1 |
| 20260507165040 | 72 | 51 | 3.5 | 7.8 | 0.00 | 0.26 | 0.26 | 59 | 1012.0 |
| 20260507164540 | 72 | 94 | 2.6 | 8.7 | 0.00 | 0.26 | 0.26 | 58 | 1011.9 |
| 20260507164037 | 72 | 0 | 3.5 | 8.7 | 0.00 | 0.26 | 0.26 | 57 | 1011.9 |
| 20260507163538 | 72 | 41 | 2.6 | 6.1 | 0.00 | 0.26 | 0.26 | 57 | 1011.9 |
| 20260507163038 | 72 | 28 | 2.6 | 6.1 | 0.00 | 0.26 | 0.26 | 57 | 1011.9 |
| 20260507162538 | 73 | 0 | 3.5 | 6.1 | 0.00 | 0.26 | 0.26 | 57 | 1012.0 |
| 20260507162037 | 73 | 1 | 1.7 | 5.2 | 0.00 | 0.26 | 0.26 | 57 | 1012.0 |
| 20260507161534 | 73 | 0 | 2.6 | 5.2 | 0.00 | 0.26 | 0.26 | 57 | 1012.1 |
| 20260507161038 | 73 | 4 | 1.7 | 6.1 | 0.00 | 0.26 | 0.26 | 58 | 1012.1 |
| 20260507160534 | 73 | 334 | 3.5 | 6.1 | 0.00 | 0.26 | 0.26 | 57 | 1012.2 |
| 20260507160035 | 74 | 38 | 1.7 | 4.3 | 0.00 | 0.26 | 0.26 | 59 | 1012.1 |
| 20260507155533 | 74 | 37 | 0.9 | 5.2 | 0.00 | 0.26 | 0.26 | 58 | 1012.2 |
| 20260507155327 | 74 | 41 | 3.5 | 6.1 | 0.00 | 0.26 | 0.26 | 57 | 1012.2 |
| 20260507154824 | 74 | 38 | 4.3 | 6.1 | 0.00 | 0.26 | 0.26 | 56 | 1012.3 |
| 20260507154034 | 74 | 44 | 1.7 | 6.1 | 0.00 | 0.26 | 0.26 | 57 | 1012.2 |
| 20260507153531 | 74 | 355 | 2.6 | 6.1 | 0.00 | 0.26 | 0.26 | 56 | 1012.2 |
| 20260507153032 | 74 | 0 | 3.5 | 6.1 | 0.00 | 0.26 | 0.26 | 56 | 1012.3 |
| 20260507152531 | 74 | 7 | 4.3 | 9.6 | 0.00 | 0.26 | 0.26 | 54 | 1012.4 |
| 20260507152031 | 74 | 345 | 3.5 | 9.6 | 0.00 | 0.26 | 0.26 | 54 | 1012.4 |
| 20260507151530 | 74 | 23 | 1.7 | 4.3 | 0.00 | 0.26 | 0.26 | 53 | 1012.4 |
| 20260507151031 | 74 | 357 | 2.6 | 4.3 | 0.00 | 0.26 | 0.26 | 53 | 1012.5 |
| 20260507150532 | 74 | 24 | 1.7 | 5.2 | 0.00 | 0.26 | 0.26 | 52 | 1012.6 |
| 20260507150031 | 74 | 44 | 3.5 | 5.2 | 0.00 | 0.26 | 0.26 | 52 | 1012.5 |
| 20260507145526 | 74 | 42 | 2.6 | 6.1 | 0.00 | 0.26 | 0.26 | 50 | 1012.4 |
| 20260507145024 | 75 | 66 | 2.6 | 8.7 | 0.00 | 0.26 | 0.26 | 49 | 1012.3 |
| 20260507144525 | 75 | 42 | 1.7 | 8.7 | 0.00 | 0.26 | 0.26 | 50 | 1012.3 |
| 20260507144022 | 75 | 75 | 3.5 | 7.8 | 0.00 | 0.26 | 0.26 | 48 | 1012.4 |
| 20260507143818 | 75 | 87 | 2.6 | 7.8 | 0.00 | 0.26 | 0.26 | 46 | 1012.4 |
| 20260507143022 | 76 | 116 | 2.6 | 7.8 | 0.00 | 0.26 | 0.26 | 46 | 1012.5 |
| 20260507142523 | 76 | 334 | 2.6 | 5.2 | 0.00 | 0.26 | 0.26 | 45 | 1012.6 |
| 20260507142021 | 76 | 45 | 1.7 | 4.3 | 0.00 | 0.26 | 0.26 | 45 | 1012.6 |
| 20260507141520 | 76 | 47 | 0.9 | 3.5 | 0.00 | 0.26 | 0.26 | 44 | 1012.8 |
| 20260507141313 | 77 | 353 | 1.7 | 2.6 | 0.00 | 0.26 | 0.26 | 45 | 1012.8 |
| 20260507140517 | 76 | 162 | 0.9 | 3.5 | 0.00 | 0.26 | 0.26 | 46 | 1012.9 |
| 20260507140019 | 75 | 162 | 1.7 | 3.5 | 0.00 | 0.26 | 0.26 | 46 | 1012.9 |
| 20260507135516 | 75 | 125 | 1.7 | 3.5 | 0.00 | 0.26 | 0.26 | 47 | 1013.0 |
| 20260507135017 | 75 | 121 | 1.7 | 3.5 | 0.00 | 0.26 | 0.26 | 45 | 1013.0 |
| 20260507134809 | 75 | 347 | 0.9 | 3.5 | 0.00 | 0.26 | 0.26 | 46 | 1013.0 |
| 20260507134014 | 75 | 347 | 1.7 | 3.5 | 0.00 | 0.26 | 0.26 | 45 | 1013.1 |
| 20260507133513 | 75 | 248 | 0.9 | 5.2 | 0.00 | 0.26 | 0.26 | 45 | 1013.1 |
| 20260507133313 | 75 | 175 | 2.6 | 8.7 | 0.00 | 0.26 | 0.26 | 44 | 1013.2 |
| 20260507132806 | 75 | 207 | 5.2 | 8.7 | 0.00 | 0.26 | 0.26 | 45 | 1013.2 |
| 20260507132016 | 75 | 192 | 2.6 | 5.2 | 0.00 | 0.26 | 0.26 | 47 | 1013.2 |
| 20260507131516 | 75 | 206 | 1.7 | 4.3 | 0.00 | 0.26 | 0.26 | 45 | 1013.2 |
| 20260507131014 | 74 | 117 | 0.0 | 5.2 | 0.00 | 0.26 | 0.26 | 45 | 1013.3 |
| 20260507130513 | 75 | 0 | 3.5 | 5.2 | 0.00 | 0.26 | 0.26 | 45 | 1013.3 |
| 20260507130014 | 75 | 238 | 0.9 | 2.6 | 0.00 | 0.26 | 0.26 | 44 | 1013.4 |
| 20260507125513 | 75 | 283 | 1.7 | 3.5 | 0.00 | 0.26 | 0.26 | 45 | 1013.5 |
| 20260507125013 | 75 | 21 | 2.6 | 7.8 | 0.00 | 0.26 | 0.26 | 45 | 1013.6 |
| 20260507124512 | 75 | 183 | 0.9 | 7.8 | 0.00 | 0.26 | 0.26 | 44 | 1013.7 |
| 20260507124019 | 75 | 285 | 1.7 | 7.8 | 0.00 | 0.26 | 0.26 | 45 | 1013.8 |
| 20260507123624 | 75 | 161 | 1.7 | 6.1 | 0.00 | 0.26 | 0.26 | 45 | 1013.8 |
| 20260507123557 | 75 | 182 | 2.6 | 7.8 | 0.00 | 0.26 | 0.26 | 46 | 1013.8 |
| 20260507122807 | 75 | 227 | 2.6 | 6.1 | 0.00 | 0.26 | 0.26 | 45 | 1013.8 |
| 20260507122010 | 75 | 157 | 0.9 | 4.3 | 0.00 | 0.26 | 0.26 | 46 | 1013.7 |
| 20260507121514 | 75 | 173 | 1.7 | 5.2 | 0.00 | 0.26 | 0.26 | 45 | 1013.8 |
| 20260507121011 | 74 | 161 | 1.7 | 5.2 | 0.00 | 0.26 | 0.26 | 45 | 1013.8 |
| 20260507120511 | 74 | 166 | 1.7 | 6.1 | 0.00 | 0.26 | 0.26 | 47 | 1013.9 |
| 20260507120011 | 74 | 204 | 3.5 | 6.1 | 0.00 | 0.26 | 0.26 | 46 | 1013.9 |
| 20260507115502 | 74 | 113 | 1.7 | 2.6 | 0.00 | 0.26 | 0.26 | 48 | 1013.9 |
| 20260507115011 | 74 | 18 | 0.9 | 3.5 | 0.00 | 0.26 | 0.26 | 51 | 1013.9 |
| 20260507114502 | 73 | 158 | 0.0 | 4.3 | 0.00 | 0.26 | 0.26 | 50 | 1013.9 |
| 20260507114305 | 73 | 182 | 2.6 | 6.1 | 0.00 | 0.26 | 0.26 | 50 | 1014.0 |
| 20260507113507 | 73 | 16 | 0.9 | 7.8 | 0.00 | 0.26 | 0.26 | 51 | 1014.2 |
| 20260507113001 | 72 | 151 | 1.7 | 8.7 | 0.00 | 0.26 | 0.26 | 52 | 1014.2 |
| 20260507112510 | 72 | 147 | 5.2 | 8.7 | 0.00 | 0.26 | 0.26 | 50 | 1014.3 |
| 20260507112002 | 72 | 176 | 3.5 | 6.1 | 0.00 | 0.26 | 0.26 | 52 | 1014.4 |
| 20260507111812 | 71 | 179 | 3.5 | 10.4 | 0.00 | 0.26 | 0.26 | 54 | 1014.4 |
| 20260507111004 | 71 | 161 | 3.5 | 10.4 | 0.00 | 0.26 | 0.26 | 53 | 1014.4 |
| 20260507110508 | 72 | 144 | 3.5 | 7.8 | 0.00 | 0.26 | 0.26 | 54 | 1014.5 |
| 20260507110011 | 72 | 89 | 1.7 | 4.3 | 0.00 | 0.26 | 0.26 | 56 | 1014.5 |
| 20260507105509 | 71 | 151 | 2.6 | 7.8 | 0.00 | 0.26 | 0.26 | 56 | 1014.5 |
| 20260507105001 | 71 | 147 | 4.3 | 8.7 | 0.00 | 0.26 | 0.26 | 56 | 1014.6 |
| 20260507104459 | 71 | 195 | 4.3 | 12.2 | 0.00 | 0.26 | 0.26 | 57 | 1014.8 |
| 20260507104001 | 71 | 154 | 6.1 | 12.2 | 0.00 | 0.26 | 0.26 | 57 | 1014.8 |
| 20260507103500 | 71 | 204 | 5.2 | 12.2 | 0.00 | 0.26 | 0.26 | 56 | 1014.8 |
| 20260507103002 | 71 | 169 | 7.0 | 12.2 | 0.00 | 0.26 | 0.26 | 56 | 1014.7 |
| 20260507102502 | 71 | 159 | 6.1 | 12.2 | 0.00 | 0.26 | 0.26 | 56 | 1014.5 |
| 20260507102257 | 71 | 172 | 5.2 | 12.2 | 0.00 | 0.26 | 0.26 | 61 | 1014.5 |
| 20260507101500 | 71 | 134 | 7.0 | 11.3 | 0.00 | 0.26 | 0.26 | 61 | 1014.5 |
| 20260507101304 | 70 | 182 | 5.2 | 11.3 | 0.00 | 0.26 | 0.26 | 63 | 1014.5 |
| 20260507100501 | 70 | 171 | 7.0 | 10.4 | 0.00 | 0.26 | 0.26 | 62 | 1014.6 |
| 20260507100000 | 70 | 145 | 6.1 | 9.6 | 0.00 | 0.26 | 0.26 | 62 | 1014.6 |
| 20260507095459 | 70 | 206 | 4.3 | 8.7 | 0.00 | 0.26 | 0.26 | 63 | 1014.6 |
| 20260507094959 | 70 | 125 | 4.3 | 9.6 | 0.00 | 0.26 | 0.26 | 63 | 1014.7 |
| 20260507094500 | 70 | 188 | 5.2 | 9.6 | 0.00 | 0.26 | 0.26 | 63 | 1014.7 |
| 20260507093959 | 69 | 237 | 2.6 | 8.7 | 0.00 | 0.26 | 0.26 | 65 | 1014.7 |
| 20260507093500 | 69 | 219 | 5.2 | 8.7 | 0.00 | 0.26 | 0.26 | 64 | 1014.8 |
| 20260507093259 | 69 | 213 | 3.5 | 8.7 | 0.00 | 0.26 | 0.26 | 65 | 1014.6 |
| 20260507092459 | 69 | 237 | 2.6 | 8.7 | 0.00 | 0.26 | 0.26 | 64 | 1014.6 |
| 20260507092117 | 68 | 186 | 6.1 | 9.6 | 0.00 | 0.26 | 0.26 | 65 | 1014.7 |
| 20260507092043 | 68 | 238 | 1.7 | 9.6 | 0.00 | 0.26 | 0.26 | 65 | 1014.6 |
| 20260507090959 | 68 | 175 | 4.3 | 8.7 | 0.00 | 0.26 | 0.26 | 65 | 1014.8 |
| 20260507090459 | 69 | 165 | 4.3 | 8.7 | 0.00 | 0.26 | 0.26 | 65 | 1014.7 |
| 20260507090000 | 69 | 266 | 2.6 | 5.2 | 0.00 | 0.26 | 0.26 | 66 | 1014.7 |
| 20260507085803 | 68 | 264 | 0.9 | 5.2 | 0.00 | 0.26 | 0.26 | 67 | 1014.8 |
| 20260507085000 | 68 | 241 | 3.5 | 5.2 | 0.00 | 0.26 | 0.26 | 68 | 1014.9 |
| 20260507084453 | 67 | 243 | 0.9 | 5.2 | 0.00 | 0.26 | 0.26 | 69 | 1014.8 |
| 20260507083949 | 67 | 289 | 2.6 | 5.2 | 0.00 | 0.26 | 0.26 | 68 | 1014.8 |
| 20260507083449 | 66 | 331 | 1.7 | 8.7 | 0.00 | 0.26 | 0.26 | 69 | 1014.9 |
| 20260507082947 | 66 | 298 | 3.5 | 8.7 | 0.00 | 0.26 | 0.26 | 67 | 1015.2 |
| 20260507082448 | 67 | 286 | 3.5 | 7.8 | 0.00 | 0.26 | 0.26 | 69 | 1015.2 |
| 20260507081947 | 67 | 343 | 3.5 | 8.7 | 0.00 | 0.26 | 0.26 | 71 | 1015.1 |
| 20260507081446 | 67 | 334 | 3.5 | 8.7 | 0.00 | 0.26 | 0.26 | 68 | 1014.9 |
| 20260507080949 | 67 | 276 | 0.9 | 2.6 | 0.00 | 0.26 | 0.26 | 70 | 1014.9 |
| 20260507080446 | 66 | 276 | 0.9 | 2.6 | 0.00 | 0.26 | 0.26 | 71 | 1014.9 |
| 20260507075942 | 66 | 251 | 1.7 | 2.6 | 0.00 | 0.26 | 0.26 | 71 | 1014.9 |
| 20260507075443 | 66 | 206 | 0.0 | 0.0 | 0.00 | 0.26 | 0.26 | 72 | 1014.8 |
| 20260507075244 | 66 | 213 | 0.0 | 0.9 | 0.00 | 0.26 | 0.26 | 73 | 1014.9 |
| 20260507074438 | 65 | 100 | 0.0 | 1.7 | 0.00 | 0.26 | 0.26 | 75 | 1014.9 |
| 20260507073939 | 64 | 100 | 0.9 | 2.6 | 0.00 | 0.26 | 0.26 | 76 | 1014.9 |
| 20260507073742 | 63 | 100 | 1.7 | 2.6 | 0.00 | 0.26 | 0.26 | 77 | 1014.9 |
| 20260507072935 | 63 | 48 | 0.9 | 2.6 | 0.00 | 0.26 | 0.26 | 79 | 1014.9 |
| 20260507072433 | 62 | 48 | 0.9 | 2.6 | 0.00 | 0.26 | 0.26 | 80 | 1015.1 |
| 20260507071933 | 62 | 48 | 0.0 | 2.6 | 0.00 | 0.26 | 0.26 | 81 | 1015.1 |
| 20260507071433 | 62 | 188 | 0.0 | 1.7 | 0.00 | 0.26 | 0.26 | 82 | 1015.1 |
| 20260507070933 | 61 | 188 | 0.0 | 2.6 | 0.00 | 0.26 | 0.26 | 83 | 1014.9 |
| 20260507070432 | 60 | 188 | 1.7 | 2.6 | 0.00 | 0.26 | 0.26 | 84 | 1015.1 |
| 20260507065931 | 60 | 110 | 0.0 | 2.6 | 0.00 | 0.26 | 0.26 | 86 | 1014.9 |
| 20260507065431 | 60 | 110 | 0.0 | 2.6 | 0.00 | 0.26 | 0.26 | 87 | 1014.9 |
| 20260507064931 | 60 | 141 | 1.7 | 3.5 | 0.00 | 0.26 | 0.26 | 87 | 1014.9 |
| 20260507064432 | 60 | 138 | 0.9 | 3.5 | 0.00 | 0.26 | 0.26 | 89 | 1014.8 |
| 20260507063933 | 60 | 113 | 0.9 | 2.6 | 0.00 | 0.26 | 0.26 | 89 | 1014.8 |
| 20260507063431 | 59 | 124 | 0.9 | 2.6 | 0.00 | 0.26 | 0.26 | 90 | 1014.8 |
| 20260507062931 | 58 | 134 | 0.9 | 2.6 | 0.00 | 0.26 | 0.26 | 90 | 1014.9 |
| 20260507062431 | 58 | 281 | 0.0 | 2.6 | 0.00 | 0.26 | 0.26 | 89 | 1014.8 |
| 20260507061931 | 58 | 281 | 0.0 | 2.6 | 0.00 | 0.26 | 0.26 | 90 | 1014.8 |
| 20260507061431 | 58 | 281 | 0.0 | 1.7 | 0.00 | 0.26 | 0.26 | 90 | 1014.9 |
| 20260507060932 | 57 | 281 | 0.0 | 0.9 | 0.00 | 0.26 | 0.26 | 90 | 1014.9 |
| 20260507060431 | 57 | 281 | 0.0 | 0.9 | 0.00 | 0.26 | 0.26 | 90 | 1015.1 |
| 20260507055930 | 57 | 281 | 0.0 | 0.0 | 0.00 | 0.26 | 0.26 | 90 | 1015.1 |
| 20260507055432 | 57 | 281 | 0.0 | 1.7 | 0.00 | 0.26 | 0.26 | 90 | 1015.1 |
| 20260507054930 | 57 | 281 | 0.0 | 1.7 | 0.00 | 0.26 | 0.26 | 89 | 1015.1 |
| 20260507054431 | 57 | 281 | 1.7 | 1.7 | 0.00 | 0.26 | 0.26 | 89 | 1014.9 |
| 20260507053930 | 56 | 281 | 0.0 | 0.0 | 0.00 | 0.26 | 0.26 | 90 | 1014.8 |
| 20260507053431 | 56 | 281 | 0.0 | 0.0 | 0.00 | 0.26 | 0.26 | 90 | 1014.8 |
| 20260507052932 | 56 | 281 | 0.0 | 0.0 | 0.00 | 0.26 | 0.26 | 89 | 1014.7 |
| 20260507052432 | 56 | 281 | 0.0 | 0.9 | 0.00 | 0.26 | 0.26 | 89 | 1014.7 |
| 20260507052237 | 56 | 281 | 0.0 | 2.6 | 0.00 | 0.26 | 0.26 | 89 | 1014.6 |
| 20260507051734 | 56 | 281 | 0.0 | 2.6 | 0.00 | 0.26 | 0.26 | 89 | 1014.6 |
| 20260507051236 | 55 | 281 | 0.0 | 2.6 | 0.00 | 0.26 | 0.26 | 89 | 1014.6 |
| 20260507050430 | 55 | 281 | 0.0 | 2.6 | 0.00 | 0.26 | 0.26 | 89 | 1014.5 |
| 20260507050235 | 55 | 281 | 0.9 | 2.6 | 0.00 | 0.26 | 0.26 | 89 | 1014.5 |
| 20260507045429 | 55 | 281 | 0.9 | 3.5 | 0.00 | 0.26 | 0.26 | 90 | 1014.4 |
| 20260507044928 | 55 | 281 | 0.9 | 5.2 | 0.00 | 0.26 | 0.26 | 90 | 1014.4 |
| 20260507044427 | 55 | 309 | 2.6 | 5.2 | 0.00 | 0.26 | 0.26 | 90 | 1014.3 |
| 20260507043928 | 55 | 282 | 2.6 | 3.5 | 0.00 | 0.26 | 0.26 | 90 | 1014.3 |
| 20260507043426 | 55 | 283 | 0.0 | 2.6 | 0.00 | 0.26 | 0.26 | 90 | 1014.3 |
| 20260507042925 | 55 | 283 | 1.7 | 2.6 | 0.00 | 0.26 | 0.26 | 90 | 1014.2 |
| 20260507042426 | 55 | 279 | 0.9 | 3.5 | 0.00 | 0.26 | 0.26 | 89 | 1014.3 |
| 20260507041924 | 55 | 168 | 0.9 | 3.5 | 0.00 | 0.26 | 0.26 | 90 | 1014.4 |
| 20260507041423 | 55 | 286 | 1.7 | 3.5 | 0.00 | 0.26 | 0.26 | 89 | 1014.3 |
| 20260507040924 | 55 | 324 | 0.9 | 3.5 | 0.00 | 0.26 | 0.26 | 89 | 1014.3 |
| 20260507040421 | 55 | 202 | 0.0 | 4.3 | 0.00 | 0.26 | 0.26 | 89 | 1014.3 |
| 20260507035921 | 55 | 202 | 2.6 | 4.3 | 0.00 | 0.26 | 0.26 | 89 | 1014.3 |
| 20260507035421 | 55 | 179 | 1.7 | 5.2 | 0.00 | 0.26 | 0.26 | 89 | 1014.2 |
| 20260507034919 | 56 | 288 | 3.5 | 5.2 | 0.00 | 0.26 | 0.26 | 89 | 1014.1 |
| 20260507034421 | 56 | 299 | 3.5 | 5.2 | 0.00 | 0.26 | 0.26 | 89 | 1014.2 |
| 20260507033919 | 56 | 289 | 2.6 | 5.2 | 0.00 | 0.26 | 0.26 | 89 | 1014.3 |
| 20260507033418 | 56 | 286 | 2.6 | 7.8 | 0.00 | 0.26 | 0.26 | 88 | 1014.3 |
| 20260507032918 | 56 | 252 | 3.5 | 7.8 | 0.00 | 0.26 | 0.26 | 88 | 1014.3 |
| 20260507032417 | 56 | 197 | 3.5 | 6.1 | 0.01 | 0.26 | 0.26 | 88 | 1014.3 |
| 20260507031916 | 56 | 140 | 2.6 | 3.5 | 0.01 | 0.26 | 0.26 | 88 | 1014.3 |
| 20260507031415 | 56 | 159 | 2.6 | 3.5 | 0.01 | 0.26 | 0.26 | 88 | 1014.3 |
| 20260507030916 | 56 | 285 | 0.0 | 3.5 | 0.02 | 0.26 | 0.26 | 88 | 1014.5 |
| 20260507030412 | 56 | 285 | 1.7 | 4.3 | 0.02 | 0.26 | 0.26 | 88 | 1014.4 |
| 20260507025918 | 56 | 300 | 2.6 | 4.3 | 0.02 | 0.24 | 0.26 | 87 | 1014.5 |
| 20260507025413 | 56 | 298 | 1.7 | 4.3 | 0.02 | 0.24 | 0.26 | 87 | 1014.6 |
| 20260507024912 | 57 | 320 | 2.6 | 5.2 | 0.02 | 0.24 | 0.26 | 87 | 1014.5 |
| 20260507024721 | 56 | 202 | 3.5 | 7.8 | 0.03 | 0.24 | 0.26 | 87 | 1014.6 |
| 20260507023910 | 57 | 216 | 4.3 | 7.8 | 0.03 | 0.24 | 0.26 | 87 | 1014.8 |
| 20260507023411 | 57 | 243 | 3.5 | 6.1 | 0.04 | 0.24 | 0.26 | 87 | 1015.1 |
| 20260507022909 | 56 | 251 | 4.3 | 6.1 | 0.05 | 0.24 | 0.26 | 87 | 1015.1 |
| 20260507022410 | 56 | 261 | 3.5 | 6.1 | 0.05 | 0.24 | 0.25 | 87 | 1015.1 |
| 20260507021909 | 56 | 216 | 3.5 | 10.4 | 0.06 | 0.24 | 0.25 | 87 | 1015.1 |
| 20260507021409 | 56 | 216 | 5.2 | 10.4 | 0.06 | 0.24 | 0.25 | 87 | 1015.1 |
| 20260507020907 | 56 | 199 | 5.2 | 9.6 | 0.06 | 0.24 | 0.24 | 87 | 1015.2 |
| 20260507020405 | 57 | 192 | 7.0 | 9.6 | 0.07 | 0.24 | 0.24 | 87 | 1014.9 |
| 20260507015905 | 57 | 220 | 3.5 | 6.1 | 0.08 | 0.17 | 0.24 | 88 | 1014.8 |
| 20260507015405 | 56 | 265 | 1.7 | 6.1 | 0.08 | 0.17 | 0.24 | 88 | 1014.6 |
| 20260507014903 | 56 | 258 | 2.6 | 8.7 | 0.08 | 0.17 | 0.24 | 88 | 1014.7 |
| 20260507014404 | 56 | 209 | 4.3 | 11.3 | 0.08 | 0.17 | 0.23 | 88 | 1014.7 |
| 20260507013903 | 56 | 210 | 5.2 | 11.3 | 0.09 | 0.17 | 0.22 | 87 | 1014.8 |
| 20260507013720 | 56 | 186 | 5.2 | 9.6 | 0.09 | 0.17 | 0.22 | 87 | 1014.8 |
| 20260507012905 | 56 | 216 | 3.5 | 6.1 | 0.08 | 0.17 | 0.21 | 87 | 1014.9 |
| 20260507012404 | 56 | 226 | 3.5 | 6.1 | 0.09 | 0.17 | 0.20 | 87 | 1014.8 |
| 20260507011904 | 56 | 259 | 1.7 | 5.2 | 0.09 | 0.17 | 0.20 | 87 | 1014.8 |
| 20260507011711 | 56 | 300 | 0.9 | 2.6 | 0.09 | 0.17 | 0.19 | 87 | 1014.8 |
| 20260507010903 | 56 | 299 | 0.9 | 2.6 | 0.09 | 0.17 | 0.18 | 87 | 1014.8 |
| 20260507010403 | 56 | 169 | 0.9 | 2.6 | 0.10 | 0.17 | 0.17 | 86 | 1014.8 |
| 20260507005902 | 56 | 258 | 0.9 | 5.2 | 0.10 | 0.06 | 0.17 | 86 | 1014.7 |
| 20260507005403 | 56 | 217 | 2.6 | 5.2 | 0.10 | 0.06 | 0.16 | 86 | 1014.9 |
| 20260507004905 | 56 | 220 | 1.7 | 4.3 | 0.11 | 0.06 | 0.16 | 85 | 1014.8 |
| 20260507004403 | 56 | 243 | 1.7 | 2.6 | 0.10 | 0.06 | 0.15 | 85 | 1014.8 |
| 20260507003902 | 56 | 252 | 0.0 | 2.6 | 0.10 | 0.06 | 0.14 | 85 | 1014.9 |
| 20260507003722 | 56 | 186 | 0.0 | 2.6 | 0.09 | 0.06 | 0.13 | 85 | 1015.1 |
| 20260507002902 | 55 | 157 | 0.0 | 5.2 | 0.10 | 0.06 | 0.13 | 85 | 1015.1 |
| 20260507002403 | 55 | 157 | 0.9 | 6.1 | 0.09 | 0.06 | 0.12 | 85 | 1015.3 |
| 20260507001902 | 55 | 212 | 3.5 | 6.1 | 0.07 | 0.06 | 0.10 | 86 | 1015.4 |
| 20260507001402 | 55 | 231 | 0.0 | 2.6 | 0.07 | 0.06 | 0.09 | 85 | 1015.4 |
| 20260507000908 | 55 | 265 | 1.7 | 2.6 | 0.06 | 0.06 | 0.09 | 85 | 1015.4 |
| 20260507000402 | 55 | 265 | 0.9 | 3.5 | 0.05 | 0.06 | 0.07 | 84 | 1015.4 |
| 20260506235902 | 55 | 265 | 1.7 | 3.5 | 0.05 | 0.02 | 0.06 | 84 | 1015.3 |
| 20260506235401 | 55 | 228 | 0.0 | 2.6 | 0.04 | 0.02 | 0.06 | 84 | 1015.4 |
| 20260506234904 | 55 | 196 | 0.0 | 1.7 | 0.03 | 0.02 | 0.05 | 84 | 1015.4 |
| 20260506234402 | 55 | 196 | 0.0 | 2.6 | 0.04 | 0.02 | 0.05 | 83 | 1015.4 |
| 20260506233902 | 55 | 196 | 0.0 | 2.6 | 0.03 | 0.02 | 0.04 | 83 | 1015.4 |
| 20260506233402 | 55 | 196 | 0.0 | 1.7 | 0.03 | 0.02 | 0.04 | 83 | 1015.5 |
| 20260506232903 | 55 | 196 | 0.0 | 3.5 | 0.03 | 0.02 | 0.03 | 82 | 1015.5 |
| 20260506232402 | 55 | 196 | 0.9 | 3.5 | 0.03 | 0.02 | 0.03 | 82 | 1015.5 |
| 20260506231902 | 55 | 220 | 1.7 | 4.3 | 0.03 | 0.02 | 0.03 | 81 | 1015.7 |
| 20260506231402 | 56 | 193 | 1.7 | 4.3 | 0.02 | 0.02 | 0.02 | 81 | 1015.7 |
| 20260506230902 | 56 | 258 | 0.0 | 0.0 | 0.02 | 0.02 | 0.02 | 80 | 1015.6 |
| 20260506230402 | 56 | 258 | 0.0 | 1.7 | 0.02 | 0.02 | 0.02 | 80 | 1015.7 |
| 20260506225902 | 56 | 258 | 0.0 | 1.7 | 0.02 | 0.00 | 0.02 | 79 | 1015.8 |
| 20260506225403 | 56 | 258 | 0.0 | 1.7 | 0.02 | 0.00 | 0.02 | 78 | 1015.9 |
| 20260506224905 | 56 | 258 | 0.9 | 1.7 | 0.02 | 0.00 | 0.02 | 77 | 1016.0 |
| 20260506224402 | 57 | 247 | 0.0 | 1.7 | 0.01 | 0.00 | 0.01 | 76 | 1016.0 |
| 20260506223902 | 57 | 247 | 0.0 | 2.6 | 0.01 | 0.00 | 0.01 | 75 | 1016.0 |
| 20260506223402 | 57 | 247 | 0.9 | 2.6 | 0.01 | 0.00 | 0.01 | 74 | 1016.1 |
| 20260506222906 | 58 | 214 | 0.0 | 4.3 | 0.00 | 0.00 | 0.00 | 72 | 1016.0 |
| 20260506222402 | 58 | 227 | 1.7 | 5.2 | 0.00 | 0.00 | 0.00 | 71 | 1016.1 |
| 20260506221902 | 58 | 228 | 0.9 | 5.2 | 0.00 | 0.00 | 0.00 | 71 | 1016.0 |
| 20260506221402 | 58 | 237 | 1.7 | 4.3 | 0.00 | 0.00 | 0.00 | 71 | 1016.1 |
| 20260506220902 | 57 | 237 | 1.7 | 4.3 | 0.00 | 0.00 | 0.00 | 71 | 1015.9 |
| 20260506220408 | 57 | 223 | 1.7 | 5.2 | 0.00 | 0.00 | 0.00 | 71 | 1015.9 |
| 20260506220208 | 57 | 216 | 1.7 | 5.2 | 0.00 | 0.00 | 0.00 | 71 | 1016.0 |
| 20260506215402 | 57 | 231 | 0.9 | 3.5 | 0.00 | 0.00 | 0.00 | 69 | 1016.0 |
| 20260506214902 | 57 | 223 | 1.7 | 3.5 | 0.00 | 0.00 | 0.00 | 69 | 1016.0 |
| 20260506214403 | 57 | 275 | 0.0 | 4.3 | 0.00 | 0.00 | 0.00 | 70 | 1016.0 |
| 20260506213902 | 57 | 275 | 0.9 | 4.3 | 0.00 | 0.00 | 0.00 | 69 | 1016.0 |